Theta_e
347 345 348 347 339 336 331 330 329 328 326 325 326 327 331 333 333 332 328 327 329 331 335 338 340 339 341 338 337 337 338 339 341 342 331 329 328 335 342 340 340 327 328
347 347 349 345 338 336 331 330 329 328 326 326 329 333 334 333 331 328 328 328 329 333 337 339 342 341 340 339 337 335 335 336 338 342 345 347 335 329 338 337 330 326 326
344 350 349 343 338 337 331 331 330 328 326 328 331 337 337 334 327 325 328 330 330 330 333 336 340 341 339 339 338 337 336 335 335 336 335 340 347 339 329 329 329 328 328
342 349 348 343 339 338 331 332 331 328 326 327 332 339 337 332 328 324 325 329 332 332 332 332 335 338 337 336 336 334 334 334 334 332 331 333 334 346 331 331 330 330 330
344 347 348 345 340 340 332 333 332 328 326 325 335 339 337 330 327 325 324 326 328 330 331 331 330 331 331 330 329 327 325 324 325 324 325 332 337 343 340 332 332 335 335
345 347 348 347 342 341 332 335 333 329 327 326 334 337 336 328 325 325 324 324 324 325 326 326 326 326 326 324 324 323 323 322 321 320 325 331 337 343 342 338 334 332 331
347 346 348 348 344 342 334 337 336 331 327 326 328 333 333 328 328 327 325 324 324 325 325 325 325 325 324 324 323 322 320 320 319 318 319 322 330 342 341 340 339 332 332
346 346 346 346 345 343 337 339 338 333 328 326 325 330 330 328 329 328 324 322 321 321 322 322 322 322 322 321 320 320 320 320 321 321 320 320 324 330 340 341 338 331 331
343 346 346 346 345 343 339 340 340 336 329 327 325 330 329 328 329 329 328 326 324 323 323 322 322 322 321 321 321 322 321 322 324 329 330 326 327 331 334 341 336 330 329
343 346 348 347 345 344 341 342 342 337 330 326 325 329 329 328 328 327 328 328 329 328 327 325 323 323 323 323 324 323 324 327 328 332 334 334 331 329 334 338 334 329 328
343 342 344 344 344 343 343 343 342 338 331 327 328 329 330 328 327 326 325 326 329 333 332 329 326 324 325 331 333 335 338 337 338 339 339 340 341 340 333 334 332 328 328
345 344 340 339 340 343 343 343 342 338 330 327 328 329 329 328 326 334 337 338 340 340 339 335 329 325 331 336 337 339 337 337 336 339 342 343 344 340 333 333 331 330 331
339 340 340 336 334 336 339 339 339 332 326 326 328 328 328 326 335 340 342 342 340 339 340 340 337 339 339 337 338 339 338 340 342 343 343 343 344 344 339 332 331 332 332
338 333 334 333 332 330 329 331 328 325 324 325 326 326 326 335 341 346 343 343 343 342 341 342 341 337 339 338 338 338 340 341 342 344 345 344 345 344 344 341 339 334 334
337 334 333 333 334 332 328 327 326 325 326 327 332 338 342 341 347 349 346 345 345 344 342 341 342 344 343 343 342 342 342 344 346 347 346 346 346 346 346 345 346 342 339
339 337 336 336 339 340 334 331 332 332 334 336 342 346 347 349 351 349 349 347 347 347 347 347 347 348 348 349 346 342 334 341 348 347 347 345 344 345 346 347 347 346 344
341 339 340 340 341 342 342 336 338 342 342 346 346 347 349 349 350 348 346 346 348 353 351 352 351 350 349 347 346 344 340 345 345 344 343 343 343 342 342 344 345 344 344
342 343 342 343 343 344 344 342 344 346 346 346 347 348 349 350 351 348 349 352 354 352 351 351 348 347 345 344 344 344 343 343 341 340 340 340 338 336 340 343 343 343 341
346 345 344 345 344 348 348 346 347 348 350 350 350 349 351 350 349 349 352 354 353 351 350 346 342 336 329 327 333 335 329 331 338 336 328 334 331 337 331 333 340 341 340
347 347 348 352 354 353 351 350 349 349 348 350 351 351 351 349 350 352 354 352 351 348 341 334 320 319 319 316 323 316 319 334 330 328 317 326 332 327 332 332 332 337 339
344 340 339 350 354 353 352 350 350 347 346 348 349 350 351 353 354 353 351 347 343 336 321 315 313 314 319 318 321 317 321 323 326 311 322 323 320 318 317 318 320 323 331
340 339 338 340 352 352 353 351 349 347 351 352 351 351 350 348 347 346 342 331 322 318 317 314 312 312 320 321 322 322 320 322 318 314 316 317 316 315 317 317 317 318 321
335 337 337 342 335 348 352 350 348 350 351 349 347 344 343 343 340 335 330 322 317 317 316 315 312 314 320 321 321 317 315 317 315 316 319 314 316 315 314 312 312 315 317
333 336 334 333 334 344 351 350 350 348 342 341 339 337 329 322 325 324 319 318 318 318 317 317 315 315 321 316 317 319 317 317 314 315 315 316 314 314 313 312 313 314 317
334 334 334 335 338 342 348 348 350 348 342 334 331 327 322 321 319 319 319 319 318 318 318 318 317 315 316 315 319 319 318 316 315 311 315 313 312 312 312 312 312 310 315
335 334 334 335 338 344 347 349 349 345 333 330 327 325 324 323 322 321 320 319 320 320 320 319 318 317 318 316 318 316 315 315 314 313 311 310 310 311 310 311 312 313 314
Wind_Speed
31 30 31 31 29 26 24 23 23 24 25 27 27 26 25 24 22 20 19 19 20 20 18 17 16 14 13 13 14 13 12 10 9 9 9 7 5 3 3 6 6 5 5
36 33 33 32 30 27 25 24 23 24 25 26 26 25 24 22 20 19 18 18 17 17 16 15 13 13 12 11 11 10 9 7 6 5 4 2 2 1 2 1 2 3 4
37 34 34 33 30 27 26 25 24 24 25 25 25 23 22 21 19 18 17 16 15 14 12 11 10 10 9 8 7 6 5 4 2 3 3 3 4 4 3 2 1 1 2
41 36 35 33 31 28 26 25 24 24 25 25 24 22 20 19 18 17 16 14 13 11 10 9 7 6 5 4 3 2 2 2 2 4 4 5 7 9 7 4 2 2 2
40 37 35 33 30 29 27 25 24 23 24 25 24 21 19 17 17 15 14 13 11 10 8 7 5 4 3 1 2 3 3 4 5 6 8 9 8 12 12 6 4 5 4
38 36 34 32 30 28 27 25 23 22 24 24 23 20 18 16 15 14 13 12 10 8 6 5 3 1 0 2 3 5 6 6 7 8 7 8 5 8 13 7 7 7 7
37 35 33 32 30 28 27 25 22 22 22 23 22 20 17 16 14 13 11 10 8 7 5 3 1 1 2 3 5 6 7 8 9 10 10 10 6 14 16 11 10 9 9
36 35 33 31 30 29 28 26 23 21 22 23 22 20 17 14 13 11 9 8 7 5 4 2 2 3 4 5 7 9 10 12 13 14 14 14 11 11 19 16 13 12 10
32 33 34 32 31 29 28 26 24 22 22 23 22 19 16 14 12 10 7 6 5 4 2 2 3 5 6 7 8 11 12 14 17 17 16 14 12 13 16 20 18 15 13
32 32 32 31 30 29 27 25 23 22 22 23 22 19 16 13 11 9 7 6 4 3 3 4 5 6 8 10 11 12 14 16 18 19 18 16 16 18 18 22 21 17 16
29 31 32 32 31 29 27 25 22 21 20 21 20 18 16 13 10 8 7 5 4 5 5 6 8 8 9 11 11 11 12 14 16 17 19 20 21 22 23 23 23 21 18
27 31 31 30 30 28 26 25 24 22 21 21 20 17 15 11 9 8 6 5 5 7 8 7 8 9 10 12 11 11 12 16 17 18 20 21 16 16 15 20 24 22 21
35 31 31 31 30 29 28 26 24 23 22 20 19 17 14 13 12 10 9 8 7 10 10 10 9 9 11 13 14 14 16 18 19 20 21 23 21 22 16 20 24 24 19
38 38 33 32 31 30 29 29 27 25 23 21 18 16 15 13 11 10 12 9 9 11 11 10 11 12 15 16 16 18 19 20 24 26 27 27 25 23 20 21 25 25 23
39 42 39 35 34 31 30 28 26 24 22 20 17 17 15 14 11 9 11 7 5 6 8 9 8 5 9 9 10 12 19 19 20 23 27 27 28 27 24 24 27 27 28
33 40 40 37 33 30 30 30 28 26 24 22 20 18 16 13 9 5 9 5 5 8 10 11 5 6 11 14 17 21 17 20 23 23 22 23 25 26 27 29 26 27 25
33 42 39 38 36 33 31 30 27 25 24 21 20 18 15 13 9 5 4 5 5 7 4 4 4 6 11 16 15 17 18 22 25 26 26 26 26 23 23 26 30 31 28
21 31 39 38 40 35 33 28 26 24 22 22 20 19 17 16 12 9 5 1 1 4 6 7 10 10 10 11 14 16 18 20 22 22 21 19 22 25 27 25 24 19 11
21 13 32 33 38 34 31 28 21 21 21 21 21 23 20 15 11 8 3 1 2 6 7 9 11 12 13 15 13 14 18 18 16 16 22 21 27 23 29 26 21 16 14
11 5 6 22 32 32 30 30 28 21 18 19 22 23 18 14 12 10 7 3 3 7 10 10 13 12 17 19 11 17 13 9 17 15 26 22 20 24 23 27 26 19 22
11 10 19 27 37 33 31 24 23 21 18 18 21 21 16 14 13 11 8 8 7 12 14 15 15 16 19 24 12 21 10 8 9 30 18 20 25 27 28 29 30 28 26
12 17 28 22 26 34 28 20 21 18 20 23 21 19 17 14 13 12 15 17 13 13 14 17 19 18 13 22 13 5 5 7 15 19 18 20 24 28 29 28 30 33 31
16 14 14 22 35 24 30 24 13 18 26 27 23 22 17 14 16 19 18 16 14 12 15 18 20 19 16 15 13 8 4 3 13 8 5 25 23 23 27 32 32 32 34
23 16 11 14 16 31 30 28 24 20 18 27 26 23 21 20 22 20 17 15 13 13 14 15 17 16 11 13 10 9 9 10 2 6 12 10 21 21 24 28 28 29 32
25 29 21 21 13 34 29 31 29 29 25 30 27 25 23 21 19 18 15 13 12 11 10 12 14 13 10 13 9 12 13 10 14 4 6 15 20 22 22 24 25 26 25
18 23 11 14 19 20 28 30 35 38 35 33 30 27 25 21 18 15 12 9 10 9 9 10 9 9 8 10 10 13 16 7 7 4 5 12 13 18 24 21 24 25 20
Wind_Direction
165 160 159 153 149 143 138 134 130 131 128 126 123 121 119 115 115 116 112 113 114 113 110 108 107 104 97 94 90 87 86 83 78 78 79 73 81 110 78 66 114 89 87
158 159 159 155 151 146 142 138 134 135 134 131 127 123 121 121 120 120 118 116 118 119 117 115 112 108 105 95 89 85 83 86 85 80 66 50 40 18 158 83 92 91 103
154 159 159 155 152 149 146 141 139 140 140 137 132 128 128 125 124 123 123 122 123 123 122 119 117 112 104 100 95 86 83 76 50 35 14 334 279 258 236 200 206 113 123
152 159 159 156 154 151 148 146 143 144 145 143 138 134 131 130 129 129 129 129 127 126 125 122 122 119 112 98 79 66 46 355 328 327 331 328 304 246 235 213 222 254 237
151 157 158 158 156 154 153 150 148 148 150 150 146 141 137 137 134 133 132 131 133 134 133 129 127 123 114 72 353 339 334 314 301 309 321 339 292 233 231 221 230 259 259
151 156 158 159 158 157 156 153 153 153 155 155 152 148 145 142 138 137 137 139 143 145 144 140 138 144 311 325 323 322 321 319 313 309 314 333 295 245 224 241 244 262 257
151 156 160 161 160 161 159 159 159 158 159 160 160 155 152 149 146 144 145 147 151 152 153 153 165 260 301 310 310 313 315 315 313 312 307 305 312 249 240 245 248 253 255
150 155 159 163 163 164 164 164 164 164 164 165 165 161 159 156 153 152 153 155 158 159 167 185 237 277 294 307 311 313 315 313 311 309 307 305 283 287 252 251 253 251 254
154 155 161 165 166 168 170 169 169 169 168 169 168 166 166 164 162 163 169 169 175 176 192 237 266 284 298 307 314 311 311 309 308 314 314 307 292 285 257 247 253 252 252
159 158 162 166 168 171 173 173 174 172 172 172 172 171 173 174 174 177 191 200 207 223 256 273 285 299 305 304 303 308 314 308 307 310 312 309 302 290 273 254 253 258 255
166 164 167 168 170 174 177 176 176 177 176 175 176 176 180 183 186 200 208 223 241 266 275 286 291 298 303 305 311 321 319 324 320 316 312 312 316 300 286 264 257 260 261
172 171 174 172 171 175 177 179 179 179 179 179 182 184 188 193 204 212 212 226 265 279 289 291 293 287 296 306 313 310 310 312 308 309 311 315 321 318 280 257 250 260 275
173 174 177 176 174 176 180 179 180 182 180 183 188 191 194 201 202 222 240 250 278 278 284 295 298 290 294 300 305 298 304 311 314 310 307 306 302 310 297 257 257 264 264
172 179 183 181 179 181 180 181 181 181 181 186 192 196 198 196 208 236 248 258 287 285 279 295 297 291 296 300 300 297 303 311 308 307 303 299 296 302 295 279 276 268 266
171 178 183 186 185 185 183 182 183 182 185 188 189 190 194 202 225 253 232 244 278 270 287 293 305 325 304 304 300 310 304 312 318 314 317 310 307 297 283 287 280 275 268
174 178 183 186 188 187 190 187 186 187 188 190 188 188 190 200 223 263 234 254 309 313 310 302 296 314 312 309 301 293 317 315 321 328 322 326 326 320 300 292 284 281 275
181 178 183 187 190 192 193 194 191 189 187 189 197 197 197 200 211 214 240 272 312 334 307 50 19 336 336 324 321 313 307 315 316 324 327 331 340 340 324 301 295 298 282
185 180 179 186 192 195 201 201 191 194 197 199 202 210 205 207 215 221 219 237 26 331 349 354 12 3 1 348 328 322 319 315 320 331 344 355 360 352 357 345 322 317 277
154 184 186 182 186 197 194 201 200 199 186 184 188 206 201 203 207 207 190 153 347 332 2 30 33 41 23 357 343 334 328 336 357 359 4 3 360 1 358 0 352 334 287
114 46 307 193 174 171 160 168 171 167 152 156 163 180 192 200 204 182 157 124 69 70 54 46 39 40 22 6 347 331 334 336 338 357 357 354 6 2 10 5 359 335 299
232 270 343 272 181 177 177 172 162 159 144 141 157 164 168 164 157 168 148 115 89 77 65 50 37 28 22 12 352 339 327 324 324 344 359 3 3 358 356 358 2 356 341
141 218 232 307 190 192 183 165 166 158 140 144 148 155 159 153 149 140 127 106 93 84 64 46 32 26 24 27 15 345 346 338 333 332 0 4 357 2 3 1 1 0 1
168 187 199 274 305 254 193 167 152 159 147 136 137 142 138 145 136 125 113 103 93 79 66 48 34 28 17 25 29 41 353 327 322 321 351 352 4 359 352 343 342 349 357
209 176 202 229 296 285 180 173 175 164 150 146 142 134 131 129 124 119 111 103 91 75 57 43 32 28 33 16 6 23 5 335 325 326 318 340 353 351 348 347 346 349 357
213 213 217 244 246 221 204 188 177 176 168 144 134 133 134 129 123 115 106 99 82 60 43 30 23 24 7 1 4 351 348 333 320 249 306 326 334 344 346 347 340 337 354
191 186 146 137 142 170 214 202 196 171 148 140 143 146 139 127 117 111 100 79 64 46 28 18 9 1 345 352 351 346 340 335 316 307 302 321 323 340 335 342 348 348 0